This demonstration page uses our WeatherBlox Daily Observations layout. Learn more.

Left ArrowRight Arrow

39.51506, -84.39828

Hourly Observations for March 1, 2017

Temp ( °F °C ) Dew Point ( °F °C ) Humidity (%) Winds ( mph kmh ) Pressure ( in mb ) Visibility ( mi km ) Precip ( " mm )
12:15 am 00:15 Cloudy 63 17.3 56 13.6 79 79 undefined N/A 29.77 1008 10 16 0.00 0.00
12:35 am 00:35 Cloudy 64 18 58 14.2 79 79 undefined N/A 29.74 1007 10 16 0.00 0.00
12:55 am 00:55 Cloudy 64 17.5 57 13.8 79 79 undefined N/A 29.71 1006 10 16 0.00 0.00
1:15 am 01:15 Cloudy with Rain 64 17.5 57 13.7 79 79 undefined N/A 29.71 1006 10 16 0.00 0.00
1:35 am 01:35 Cloudy with Rain 62 16.9 57 13.7 82 82 undefined N/A 29.77 1008 4 6 0.00 0.00
1:55 am 01:55 Cloudy with Rain 62 16.6 56 13.6 83 83 undefined N/A 29.68 1005 4 6 0.00 0.00
2:15 am 02:15 Cloudy with Light Rain 61 16 55 12.6 80 80 undefined N/A 29.68 1005 10 16 0.00 0.00
2:35 am 02:35 Cloudy with Rain 61 15.9 54 12.4 80 80 undefined N/A 29.68 1005 10 16 0.00 0.00
2:55 am 02:55 Cloudy with Light Rain 60 15.3 54 12 81 81 undefined N/A 29.65 1004 10 16 0.00 0.00
3:15 am 03:15 Mostly Cloudy 60 15.3 53 11.7 79 79 undefined N/A 29.62 1003 10 16 0.00 0.00
3:35 am 03:35 Mostly Cloudy with Rain 61 16.3 55 12.8 80 80 undefined N/A 29.62 1003 10 16 0.00 0.00
3:55 am 03:55 Mostly Cloudy with Light Rain 62 16.7 55 12.7 77 77 undefined N/A 29.59 1002 10 16 0.00 0.00
4:15 am 04:15 Mostly Cloudy 62 16.7 54 12.1 74 74 undefined N/A 29.62 1003 10 16 0.00 0.00
4:35 am 04:35 Cloudy 62 16.6 55 12.6 77 77 undefined N/A 29.59 1002 10 16 0.00 0.00
4:55 am 04:55 Cloudy 62 16.4 53 11.9 75 75 undefined N/A 29.59 1002 10 16 0.00 0.00
5:15 am 05:15 Cloudy 61 16 53 11.7 76 76 undefined N/A 29.59 1002 10 16 0.00 0.00
5:35 am 05:35 Cloudy with Heavy Rain 60 15.3 50 9.8 70 70 undefined N/A 29.65 1004 10 16 0.00 0.00
5:55 am 05:55 Cloudy with Heavy Rain 57 13.8 50 10.1 79 79 undefined N/A 29.62 1003 7 11 0.00 0.00
6:15 am 06:15 Cloudy with Heavy Rain 55 12.5 49 9.2 80 80 undefined N/A 29.62 1003 2 2 0.00 0.00
6:35 am 06:35 Cloudy with Heavy Rain 55 12.5 49 9.5 82 82 undefined N/A 29.59 1002 4 6 0.00 0.00
6:55 am 06:55 Cloudy with Heavy Rain 55 12.5 49 9.6 83 83 undefined N/A 29.65 1004 4 6 0.00 0.00
7:15 am 07:15 Cloudy with Rain 55 12.5 49 9.7 83 83 undefined N/A 29.68 1005 7 11 0.00 0.00
7:35 am 07:35 Cloudy with Rain 55 12.5 49 9.7 83 83 undefined N/A 29.65 1004 7 11 0.00 0.00
7:55 am 07:55 Cloudy with Light Rain 55 12.5 49 9.6 83 83 undefined N/A 29.68 1005 7 11 0.00 0.00
8:15 am 08:15 Cloudy with Light Rain 55 12.5 49 9.5 82 82 undefined N/A 29.68 1005 10 16 0.00 0.00
8:35 am 08:35 Cloudy with Rain 55 12.5 49 9.5 82 82 undefined N/A 29.74 1007 7 11 0.00 0.00
8:55 am 08:55 Cloudy with Rain 55 12.5 49 9.5 82 82 undefined N/A 29.74 1007 10 16 0.00 0.00
9:15 am 09:15 Cloudy with Light Rain 55 12.5 49 9.3 81 81 undefined N/A 29.62 1003 10 16 0.00 0.00
9:35 am 09:35 Mostly Cloudy 55 12.5 48 9 79 79 undefined N/A 29.59 1002 10 16 0.00 0.00
9:55 am 09:55 Partly Cloudy 55 12.9 48 9.1 78 78 undefined N/A 29.59 1002 10 16 0.00 0.00
10:15 am 10:15 Sunny 55 12.7 48 9 78 78 undefined N/A 29.59 1002 10 16 0.00 0.00
10:35 am 10:35 Sunny 57 13.8 50 10 78 78 undefined N/A 29.59 1002 10 16 0.00 0.00
10:55 am 10:55 Sunny 57 13.8 49 9.6 76 76 undefined N/A 29.59 1002 10 16 0.00 0.00
11:15 am 11:15 Sunny 60 15.3 50 10.1 71 71 undefined N/A 29.59 1002 10 16 0.00 0.00
11:35 am 11:35 Mostly Cloudy 60 15.3 49 9.7 69 69 undefined N/A 29.62 1003 10 16 0.00 0.00
11:55 am 11:55 Cloudy 60 15.3 49 9.6 69 69 undefined N/A 29.62 1003 10 16 0.00 0.00
12:15 pm 12:15 Cloudy 60 15.3 49 9.2 67 67 undefined N/A 29.62 1003 10 16 0.00 0.00
12:35 pm 12:35 Cloudy 60 15.3 47 8.6 65 65 undefined N/A 29.62 1003 10 16 0.00 0.00
12:55 pm 12:55 Cloudy 60 15.3 47 8.2 63 63 undefined N/A 29.62 1003 10 16 0.00 0.00
1:15 pm 13:15 Cloudy 60 15.3 47 8.2 63 63 undefined N/A 29.62 1003 10 16 0.00 0.00
1:35 pm 13:35 Cloudy with Light Rain 60 15.7 47 8.4 62 62 undefined N/A 29.62 1003 10 16 0.00 0.00
1:55 pm 13:55 Mostly Cloudy 60 15.3 45 7.2 59 59 undefined N/A 29.62 1003 10 16 0.00 0.00
2:15 pm 14:15 Mostly Cloudy 60 15.7 44 6.9 56 56 undefined N/A 29.65 1004 10 16 0.00 0.00
2:35 pm 14:35 Cloudy 57 13.8 43 6.2 60 60 undefined N/A 29.65 1004 10 16 0.00 0.00
2:55 pm 14:55 Cloudy 57 13.8 41 5.1 56 56 undefined N/A 29.68 1005 10 16 0.00 0.00
3:15 pm 15:15 Cloudy 55 12.5 39 4.1 57 57 undefined N/A 29.74 1007 10 16 0.00 0.00
3:35 pm 15:35 Cloudy 55 12.5 40 4.5 58 58 undefined N/A 29.74 1007 10 16 0.00 0.00
3:55 pm 15:55 Cloudy 55 12.5 40 4.4 58 58 undefined N/A 29.74 1007 10 16 0.00 0.00
4:15 pm 16:15 Cloudy 52 11 37 2.5 56 56 undefined N/A 29.77 1008 10 16 0.00 0.00
4:35 pm 16:35 Cloudy 49 9.6 36 2 59 59 undefined N/A 29.80 1009 10 16 0.00 0.00
4:55 pm 16:55 Cloudy 49 9.6 37 2.6 62 62 undefined N/A 29.80 1009 10 16 0.00 0.00
5:15 pm 17:15 Cloudy 49 9.6 37 2.5 62 62 undefined N/A 29.83 1010 10 16 0.00 0.00
5:35 pm 17:35 Cloudy 49 9.6 36 2.1 60 60 undefined N/A 29.83 1010 10 16 0.00 0.00
5:55 pm 17:55 Mostly Cloudy 49 9.6 33 0.8 55 55 undefined N/A 29.83 1010 10 16 0.00 0.00
6:15 pm 18:15 Mostly Cloudy 49 9.4 31 -0.5 50 50 undefined N/A 29.85 1011 10 16 0.00 0.00
6:35 pm 18:35 Cloudy 47 8.2 26 -3.1 45 45 undefined N/A 29.85 1011 10 16 0.00 0.00
6:55 pm 18:55 Cloudy 59 15.2 54 12.3 83 83 undefined N/A 29.85 1011 10 16 0.00 0.00
7:15 pm 19:15 Cloudy 47 8.2 29 -1.7 50 50 undefined N/A 29.85 1011 10 16 0.00 0.00
7:35 pm 19:35 Cloudy 47 8.2 29 -1.4 51 51 undefined N/A 29.88 1012 10 16 0.00 0.00
7:55 pm 19:55 Cloudy 47 8.2 29 -1.4 51 51 undefined N/A 29.88 1012 10 16 0.00 0.00
8:15 pm 20:15 Cloudy 47 8.1 30 -1.2 52 52 undefined N/A 29.91 1013 10 16 0.00 0.00
8:35 pm 20:35 Cloudy 44 6.9 29 -1.6 55 55 undefined N/A 29.91 1013 10 16 0.00 0.00
8:55 pm 20:55 Cloudy 43 6.3 27 -3 52 52 undefined N/A 29.94 1014 10 16 0.00 0.00
9:15 pm 21:15 Cloudy 44 6.4 24 -4.6 46 46 undefined N/A 29.94 1014 10 16 0.00 0.00
9:35 pm 21:35 Cloudy 43 5.9 26 -3.5 51 51 undefined N/A 29.97 1015 10 16 0.00 0.00
9:55 pm 21:55 Cloudy 42 5.5 26 -3.1 54 54 undefined N/A 30.00 1016 10 16 0.00 0.00
10:15 pm 22:15 Cloudy 40 4.7 24 -4.6 51 51 undefined N/A 30.00 1016 10 16 0.00 0.00
10:35 pm 22:35 Cloudy 40 4.7 23 -4.8 51 51 undefined N/A 30.00 1016 10 16 0.00 0.00
10:55 pm 22:55 Mostly Cloudy 40 4.2 23 -5.1 51 51 undefined N/A 30.03 1017 10 16 0.00 0.00
11:15 pm 23:15 Mostly Cloudy 39 4 23 -4.9 53 53 undefined N/A 30.03 1017 10 16 0.00 0.00
11:35 pm 23:35 Mostly Cloudy 39 4.1 22 -5.5 50 50 undefined N/A 30.03 1017 10 16 0.00 0.00
11:55 pm 23:55 Cloudy 39 4 22 -5.3 51 51 undefined N/A 30.09 1019 10 16 0.00 0.00

Powered by AerisWeather